RYA52 PANC-PAKN

Flight info

Callsign RYA52
Flight time 1h 4m
Altitude 24000
Route PANC ENA AKN PAKN
Aircraft PC12/L-VGDW/C

Departure

Time 2026-05-06 00:04
Airport Ted Stevens Anchorage International Airport (PANC)

Arrival

Time 2026-05-06 01:08
Airport King Salmon Airport (PAKN)
Time Latitude Longitude Altitude Speed Heading
2026-05-05 23:44 61.16215 -149.98078 121 ft 0 kts 130°
2026-05-05 23:55 61.16193 -149.98068 137 ft 2 kts 198°
2026-05-05 23:56 61.16141 -149.98068 110 ft 14 kts 187°
2026-05-05 23:56 61.16118 -149.98110 116 ft 0 kts 257°
2026-05-05 23:56 61.16118 -149.98107 116 ft 0 kts 257°
2026-05-05 23:56 61.16160 -149.98184 109 ft 19 kts 342°
2026-05-05 23:57 61.16330 -149.98314 116 ft 33 kts 340°
2026-05-05 23:57 61.16521 -149.98459 115 ft 14 kts 340°
2026-05-05 23:57 61.16622 -149.98550 116 ft 3 kts 288°
2026-05-05 23:57 61.16623 -149.98731 116 ft 24 kts 270°
2026-05-05 23:58 61.16623 -149.99032 116 ft 21 kts 269°
2026-05-05 23:58 61.16637 -149.99222 114 ft 11 kts 323°
2026-05-05 23:58 61.16740 -149.99294 115 ft 18 kts 338°
2026-05-05 23:58 61.16845 -149.99360 117 ft 0 kts 342°
2026-05-05 23:59 61.16859 -149.99369 116 ft 12 kts 344°
2026-05-05 23:59 61.16929 -149.99407 116 ft 14 kts 344°
2026-05-05 23:59 61.17070 -149.99483 115 ft 22 kts 343°
2026-05-05 23:59 61.17105 -149.99505 116 ft 0 kts 342°
2026-05-06 00:00 61.17109 -149.99507 113 ft 5 kts 350°
2026-05-06 00:00 61.17127 -149.99348 117 ft 20 kts 89°
2026-05-06 00:00 61.17128 -149.98977 117 ft 29 kts 94°
2026-05-06 00:00 61.17119 -149.98553 117 ft 18 kts 89°
2026-05-06 00:01 61.17120 -149.98289 117 ft 27 kts 89°
2026-05-06 00:01 61.17119 -149.97844 117 ft 26 kts 91°
2026-05-06 00:01 61.17120 -149.97435 117 ft 34 kts 88°
2026-05-06 00:01 61.17129 -149.97013 117 ft 30 kts 90°
2026-05-06 00:02 61.17129 -149.96489 117 ft 42 kts 90°
2026-05-06 00:02 61.17131 -149.95864 116 ft 37 kts 90°
2026-05-06 00:02 61.17129 -149.95450 117 ft 33 kts 91°
2026-05-06 00:02 61.17129 -149.94932 116 ft 23 kts 91°
2026-05-06 00:03 61.17014 -149.94883 117 ft 14 kts 230°
2026-05-06 00:03 61.16982 -149.95117 118 ft 24 kts 269°
2026-05-06 00:03 61.16981 -149.95822 116 ft 81 kts 270°
2026-05-06 00:03 61.16980 -149.97232 332 ft 111 kts 268°
2026-05-06 00:04 61.16968 -149.99098 654 ft 149 kts 268°
2026-05-06 00:04 61.16956 -150.01457 1027 ft 176 kts 268°
2026-05-06 00:04 61.16947 -150.04119 1431 ft 193 kts 268°
2026-05-06 00:04 61.16935 -150.06952 1939 ft 199 kts 268°
2026-05-06 00:05 61.15952 -150.11967 2957 ft 198 kts 212°
2026-05-06 00:05 61.14837 -150.13638 3481 ft 200 kts 217°
2026-05-06 00:05 61.13804 -150.15619 4016 ft 205 kts 221°
2026-05-06 00:06 61.12787 -150.17733 4550 ft 209 kts 221°
2026-05-06 00:06 61.11769 -150.19819 5067 ft 210 kts 221°
2026-05-06 00:06 61.10718 -150.21947 5596 ft 211 kts 220°
2026-05-06 00:06 61.09669 -150.24069 6128 ft 211 kts 220°
2026-05-06 00:07 61.08617 -150.26198 6629 ft 212 kts 221°
2026-05-06 00:07 61.07563 -150.28330 7134 ft 213 kts 221°
2026-05-06 00:07 61.06498 -150.30479 7653 ft 214 kts 223°
2026-05-06 00:07 61.05428 -150.32641 8175 ft 216 kts 224°
2026-05-06 00:08 61.04350 -150.34816 8703 ft 218 kts 223°
2026-05-06 00:08 61.03256 -150.37018 9244 ft 221 kts 223°
2026-05-06 00:08 61.02151 -150.39238 9778 ft 223 kts 223°
2026-05-06 00:08 61.01034 -150.41485 10277 ft 225 kts 223°
2026-05-06 00:09 60.99906 -150.43749 10785 ft 227 kts 224°
2026-05-06 00:09 60.98783 -150.46001 11295 ft 229 kts 223°
2026-05-06 00:09 60.97636 -150.48297 11809 ft 231 kts 223°
2026-05-06 00:09 60.96482 -150.50608 12347 ft 232 kts 223°
2026-05-06 00:10 60.95318 -150.52933 12893 ft 234 kts 223°
2026-05-06 00:10 60.94147 -150.55273 13443 ft 235 kts 223°
2026-05-06 00:10 60.92971 -150.57617 13946 ft 236 kts 223°
2026-05-06 00:10 60.91790 -150.59973 14446 ft 236 kts 223°
2026-05-06 00:11 60.90615 -150.62311 14946 ft 235 kts 223°
2026-05-06 00:11 60.89442 -150.64643 15458 ft 235 kts 223°
2026-05-06 00:11 60.88267 -150.66976 15980 ft 235 kts 223°
2026-05-06 00:11 60.87107 -150.69277 16503 ft 235 kts 224°
2026-05-06 00:12 60.85933 -150.71605 17044 ft 235 kts 224°
2026-05-06 00:12 60.84757 -150.73933 17592 ft 235 kts 224°
2026-05-06 00:12 60.83576 -150.76265 18130 ft 236 kts 225°
2026-05-06 00:12 60.82393 -150.78603 18617 ft 236 kts 225°
2026-05-06 00:13 60.81207 -150.80944 19106 ft 237 kts 225°
2026-05-06 00:13 60.80022 -150.83281 19609 ft 237 kts 225°
2026-05-06 00:13 60.78832 -150.85625 20120 ft 237 kts 225°
2026-05-06 00:13 60.77644 -150.87960 20639 ft 237 kts 226°
2026-05-06 00:14 60.76454 -150.90297 21164 ft 237 kts 226°
2026-05-06 00:14 60.75264 -150.92633 21692 ft 236 kts 226°
2026-05-06 00:14 60.74095 -150.94925 22238 ft 236 kts 226°
2026-05-06 00:14 60.72911 -150.97244 22792 ft 235 kts 226°
2026-05-06 00:15 60.71731 -150.99553 23352 ft 235 kts 226°
2026-05-06 00:15 60.70549 -151.01864 23744 ft 238 kts 226°
2026-05-06 00:15 60.69311 -151.04284 23777 ft 254 kts 226°
2026-05-06 00:15 60.68008 -151.06826 23776 ft 264 kts 226°
2026-05-06 00:16 60.66660 -151.09447 23777 ft 270 kts 226°
2026-05-06 00:16 60.65293 -151.12104 23779 ft 273 kts 226°
2026-05-06 00:16 60.63912 -151.14787 23777 ft 275 kts 226°
2026-05-06 00:16 60.62526 -151.17477 23778 ft 276 kts 226°
2026-05-06 00:17 60.61239 -151.20350 23765 ft 274 kts 236°
2026-05-06 00:17 60.60249 -151.23586 23767 ft 273 kts 240°
2026-05-06 00:17 60.59257 -151.26882 23768 ft 273 kts 239°
2026-05-06 00:17 60.58261 -151.30153 23770 ft 273 kts 239°
2026-05-06 00:18 60.57263 -151.33444 23770 ft 273 kts 240°
2026-05-06 00:18 60.56270 -151.36726 23770 ft 272 kts 240°
2026-05-06 00:18 60.55276 -151.40003 23770 ft 272 kts 239°
2026-05-06 00:18 60.54278 -151.43281 23770 ft 272 kts 239°
2026-05-06 00:19 60.53283 -151.46551 23770 ft 272 kts 239°
2026-05-06 00:19 60.52286 -151.49821 23770 ft 272 kts 239°
2026-05-06 00:19 60.51300 -151.53049 23770 ft 272 kts 239°
2026-05-06 00:19 60.50301 -151.56316 23770 ft 273 kts 239°
2026-05-06 00:20 60.49302 -151.59580 23769 ft 272 kts 239°
2026-05-06 00:20 60.48300 -151.62847 23770 ft 272 kts 239°
2026-05-06 00:20 60.47301 -151.66099 23769 ft 272 kts 239°
2026-05-06 00:20 60.46296 -151.69367 23772 ft 272 kts 239°
2026-05-06 00:21 60.45295 -151.72620 23772 ft 272 kts 239°
2026-05-06 00:21 60.44291 -151.75874 23772 ft 272 kts 239°
2026-05-06 00:21 60.43286 -151.79128 23772 ft 272 kts 239°
2026-05-06 00:21 60.42282 -151.82374 23764 ft 272 kts 239°
2026-05-06 00:22 60.41292 -151.85570 23766 ft 272 kts 239°
2026-05-06 00:22 60.40287 -151.88813 23765 ft 272 kts 239°
2026-05-06 00:22 60.39283 -151.92044 23768 ft 272 kts 239°
2026-05-06 00:22 60.38278 -151.95278 23766 ft 272 kts 239°
2026-05-06 00:23 60.37270 -151.98514 23766 ft 272 kts 239°
2026-05-06 00:23 60.36262 -152.01747 23765 ft 272 kts 239°
2026-05-06 00:23 60.35255 -152.04972 23774 ft 272 kts 238°
2026-05-06 00:23 60.34243 -152.08208 23780 ft 272 kts 238°
2026-05-06 00:24 60.33232 -152.11436 23779 ft 273 kts 238°
2026-05-06 00:24 60.32219 -152.14667 23780 ft 273 kts 238°
2026-05-06 00:24 60.31203 -152.17902 23788 ft 273 kts 238°
2026-05-06 00:24 60.30201 -152.21087 23788 ft 273 kts 238°
2026-05-06 00:25 60.29185 -152.24314 23782 ft 273 kts 238°
2026-05-06 00:25 60.28168 -152.27540 23783 ft 273 kts 238°
2026-05-06 00:25 60.27189 -152.30639 23783 ft 273 kts 238°
2026-05-06 00:25 60.26171 -152.33859 23783 ft 273 kts 238°
2026-05-06 00:26 60.25152 -152.37078 23785 ft 273 kts 238°
2026-05-06 00:26 60.24131 -152.40298 23776 ft 273 kts 238°
2026-05-06 00:26 60.23115 -152.43499 23776 ft 271 kts 238°
2026-05-06 00:26 60.22096 -152.46702 23776 ft 271 kts 238°
2026-05-06 00:27 60.21081 -152.49888 23776 ft 271 kts 237°
2026-05-06 00:27 60.20065 -152.53075 23776 ft 270 kts 237°
2026-05-06 00:27 60.19051 -152.56253 23781 ft 270 kts 237°
2026-05-06 00:27 60.18034 -152.59435 23781 ft 270 kts 237°
2026-05-06 00:28 60.17030 -152.62569 23783 ft 270 kts 237°
2026-05-06 00:28 60.16012 -152.65744 23784 ft 270 kts 237°
2026-05-06 00:28 60.14994 -152.68915 23784 ft 270 kts 237°
2026-05-06 00:28 60.13975 -152.72086 23785 ft 270 kts 237°
2026-05-06 00:29 60.12954 -152.75259 23785 ft 271 kts 237°
2026-05-06 00:29 60.11932 -152.78428 23784 ft 271 kts 237°
2026-05-06 00:29 60.10910 -152.81595 23782 ft 270 kts 237°
2026-05-06 00:29 60.09888 -152.84760 23783 ft 271 kts 237°
2026-05-06 00:30 60.08864 -152.87922 23785 ft 271 kts 237°
2026-05-06 00:30 60.07839 -152.91084 23787 ft 270 kts 237°
2026-05-06 00:30 60.06815 -152.94240 23787 ft 270 kts 237°
2026-05-06 00:30 60.05805 -152.97349 23787 ft 270 kts 237°
2026-05-06 00:31 60.04779 -153.00501 23780 ft 270 kts 237°
2026-05-06 00:31 60.03756 -153.03641 23781 ft 269 kts 237°
2026-05-06 00:31 60.02733 -153.06774 23784 ft 269 kts 237°
2026-05-06 00:31 60.01708 -153.09912 23789 ft 270 kts 237°
2026-05-06 00:32 60.00682 -153.13049 23794 ft 270 kts 237°
2026-05-06 00:32 59.99650 -153.16200 23792 ft 271 kts 237°
2026-05-06 00:32 59.98618 -153.19345 23794 ft 271 kts 237°
2026-05-06 00:32 59.97587 -153.22483 23794 ft 270 kts 237°
2026-05-06 00:33 59.96555 -153.25622 23791 ft 270 kts 236°
2026-05-06 00:33 59.95523 -153.28754 23800 ft 270 kts 236°
2026-05-06 00:33 59.94489 -153.31893 23802 ft 271 kts 236°
2026-05-06 00:33 59.93451 -153.35033 23809 ft 271 kts 236°
2026-05-06 00:34 59.92412 -153.38175 23807 ft 272 kts 236°
2026-05-06 00:34 59.91372 -153.41317 23803 ft 271 kts 236°
2026-05-06 00:34 59.90346 -153.44411 23806 ft 271 kts 236°
2026-05-06 00:34 59.89304 -153.47548 23804 ft 271 kts 236°
2026-05-06 00:35 59.88264 -153.50677 23806 ft 271 kts 236°
2026-05-06 00:35 59.87222 -153.53806 23814 ft 271 kts 236°
2026-05-06 00:35 59.86179 -153.56933 23814 ft 271 kts 236°
2026-05-06 00:35 59.85135 -153.60061 23803 ft 271 kts 235°
2026-05-06 00:36 59.84093 -153.63181 23809 ft 271 kts 235°
2026-05-06 00:36 59.83050 -153.66295 23807 ft 271 kts 235°
2026-05-06 00:36 59.82008 -153.69404 23806 ft 270 kts 235°
2026-05-06 00:36 59.80980 -153.72469 23807 ft 270 kts 235°
2026-05-06 00:37 59.79936 -153.75576 23802 ft 270 kts 235°
2026-05-06 00:37 59.78893 -153.78675 23805 ft 270 kts 235°
2026-05-06 00:37 59.77850 -153.81771 23806 ft 270 kts 235°
2026-05-06 00:37 59.76805 -153.84868 23808 ft 270 kts 235°
2026-05-06 00:38 59.75760 -153.87962 23807 ft 270 kts 235°
2026-05-06 00:38 59.74715 -153.91052 23806 ft 270 kts 235°
2026-05-06 00:38 59.73667 -153.94143 23808 ft 270 kts 235°
2026-05-06 00:38 59.72620 -153.97230 23806 ft 270 kts 235°
2026-05-06 00:39 59.71575 -154.00310 23812 ft 270 kts 235°
2026-05-06 00:39 59.70541 -154.03349 23810 ft 270 kts 235°
2026-05-06 00:39 59.69494 -154.06426 23817 ft 269 kts 235°
2026-05-06 00:39 59.68445 -154.09502 23817 ft 269 kts 235°
2026-05-06 00:40 59.67396 -154.12573 23818 ft 270 kts 235°
2026-05-06 00:40 59.66345 -154.15647 23818 ft 269 kts 235°
2026-05-06 00:40 59.65296 -154.18714 23817 ft 270 kts 235°
2026-05-06 00:40 59.64243 -154.21786 23818 ft 270 kts 235°
2026-05-06 00:41 59.63188 -154.24861 23821 ft 270 kts 235°
2026-05-06 00:41 59.62131 -154.27934 23825 ft 270 kts 235°
2026-05-06 00:41 59.61069 -154.30994 23827 ft 270 kts 234°
2026-05-06 00:41 59.60000 -154.34052 23826 ft 271 kts 234°
2026-05-06 00:42 59.58931 -154.37105 23831 ft 271 kts 234°
2026-05-06 00:42 59.57820 -154.40046 23826 ft 270 kts 228°
2026-05-06 00:42 59.56488 -154.42660 23828 ft 270 kts 223°
2026-05-06 00:42 59.55115 -154.45190 23827 ft 270 kts 224°
2026-05-06 00:43 59.53811 -154.47864 23821 ft 270 kts 227°
2026-05-06 00:43 59.52557 -154.50613 23832 ft 270 kts 227°
2026-05-06 00:43 59.51283 -154.53330 23830 ft 270 kts 226°
2026-05-06 00:43 59.49988 -154.56019 23831 ft 270 kts 226°
2026-05-06 00:44 59.48697 -154.58716 23832 ft 271 kts 226°
2026-05-06 00:44 59.47410 -154.61425 23832 ft 271 kts 226°
2026-05-06 00:44 59.46119 -154.64136 23836 ft 271 kts 226°
2026-05-06 00:44 59.44826 -154.66837 23834 ft 271 kts 226°
2026-05-06 00:45 59.43534 -154.69536 23837 ft 271 kts 226°
2026-05-06 00:45 59.42264 -154.72190 23836 ft 271 kts 226°
2026-05-06 00:45 59.40971 -154.74884 23836 ft 271 kts 226°
2026-05-06 00:45 59.39686 -154.77561 23836 ft 271 kts 226°
2026-05-06 00:46 59.38392 -154.80254 23836 ft 270 kts 226°
2026-05-06 00:46 59.37100 -154.82936 23836 ft 270 kts 226°
2026-05-06 00:46 59.35810 -154.85615 23841 ft 270 kts 226°
2026-05-06 00:46 59.34518 -154.88292 23842 ft 270 kts 226°
2026-05-06 00:47 59.33226 -154.90967 23841 ft 271 kts 226°
2026-05-06 00:47 59.32367 -154.92743 23842 ft 270 kts 226°
2026-05-06 00:47 59.31073 -154.95416 23843 ft 271 kts 226°
2026-05-06 00:47 59.29769 -154.98107 23685 ft 274 kts 225°
2026-05-06 00:48 59.28177 -155.01395 22983 ft 235 kts 225°
2026-05-06 00:48 59.27060 -155.03692 22202 ft 233 kts 225°
2026-05-06 00:48 59.25955 -155.05960 21767 ft 225 kts 225°
2026-05-06 00:48 59.24889 -155.08150 21494 ft 220 kts 225°
2026-05-06 00:49 59.24177 -155.09611 21086 ft 235 kts 225°
2026-05-06 00:49 59.22956 -155.12108 20458 ft 269 kts 226°
2026-05-06 00:49 59.21627 -155.14834 19950 ft 275 kts 226°
2026-05-06 00:49 59.20399 -155.17355 19322 ft 240 kts 226°
2026-05-06 00:50 59.19273 -155.19655 18690 ft 232 kts 226°
2026-05-06 00:50 59.18093 -155.22059 18085 ft 263 kts 226°
2026-05-06 00:50 59.16798 -155.24701 17412 ft 272 kts 226°
2026-05-06 00:50 59.15496 -155.27355 16745 ft 269 kts 226°
2026-05-06 00:51 59.14208 -155.29976 16086 ft 267 kts 226°
2026-05-06 00:51 59.12916 -155.32601 15439 ft 271 kts 226°
2026-05-06 00:51 59.11620 -155.35233 14817 ft 276 kts 226°
2026-05-06 00:51 59.10281 -155.37948 14205 ft 279 kts 226°
2026-05-06 00:52 59.08941 -155.40661 13588 ft 278 kts 226°
2026-05-06 00:52 59.07592 -155.43389 12934 ft 281 kts 226°
2026-05-06 00:52 59.06253 -155.46096 12318 ft 273 kts 226°
2026-05-06 00:52 59.04949 -155.48727 11651 ft 267 kts 226°
2026-05-06 00:53 59.03667 -155.51310 11007 ft 267 kts 226°
2026-05-06 00:53 59.02386 -155.53890 10727 ft 265 kts 226°
2026-05-06 00:53 59.01107 -155.56460 10472 ft 264 kts 226°
2026-05-06 00:53 58.99832 -155.59021 10217 ft 264 kts 226°
2026-05-06 00:54 58.98556 -155.61582 9963 ft 263 kts 227°
2026-05-06 00:54 58.97286 -155.64128 9710 ft 263 kts 226°
2026-05-06 00:54 58.96015 -155.66671 9440 ft 262 kts 227°
2026-05-06 00:54 58.94762 -155.69175 9171 ft 262 kts 226°
2026-05-06 00:55 58.93495 -155.71706 8907 ft 261 kts 227°
2026-05-06 00:55 58.92234 -155.74222 8639 ft 260 kts 227°
2026-05-06 00:55 58.90981 -155.76719 8375 ft 258 kts 226°
2026-05-06 00:55 58.89734 -155.79202 8110 ft 256 kts 227°
2026-05-06 00:56 58.88498 -155.81664 7845 ft 254 kts 227°
2026-05-06 00:56 58.87265 -155.84111 7585 ft 253 kts 226°
2026-05-06 00:56 58.86048 -155.86522 7327 ft 249 kts 227°
2026-05-06 00:56 58.84842 -155.88913 7068 ft 248 kts 226°
2026-05-06 00:57 58.83659 -155.91257 6815 ft 247 kts 227°
2026-05-06 00:57 58.82467 -155.93616 6563 ft 245 kts 226°
2026-05-06 00:57 58.81278 -155.95960 6313 ft 242 kts 227°
2026-05-06 00:57 58.80112 -155.98281 6041 ft 240 kts 228°
2026-05-06 00:58 58.78952 -156.00551 5852 ft 236 kts 228°
2026-05-06 00:58 58.77815 -156.02776 5782 ft 232 kts 228°
2026-05-06 00:58 58.76691 -156.04998 5646 ft 230 kts 228°
2026-05-06 00:58 58.75582 -156.07184 5510 ft 226 kts 229°
2026-05-06 00:59 58.74492 -156.09324 5375 ft 221 kts 227°
2026-05-06 00:59 58.73423 -156.11421 5238 ft 218 kts 227°
2026-05-06 00:59 58.72357 -156.13511 4926 ft 221 kts 228°
2026-05-06 00:59 58.71282 -156.15621 4393 ft 225 kts 228°
2026-05-06 01:00 58.70178 -156.17779 3917 ft 227 kts 229°
2026-05-06 01:00 58.69090 -156.19899 3861 ft 219 kts 228°
2026-05-06 01:00 58.68033 -156.21967 3861 ft 216 kts 227°
2026-05-06 01:00 58.66981 -156.24022 3864 ft 215 kts 228°
2026-05-06 01:01 58.65934 -156.26067 3868 ft 215 kts 228°
2026-05-06 01:01 58.64881 -156.28114 3871 ft 216 kts 228°
2026-05-06 01:01 58.63768 -156.30049 3866 ft 218 kts 216°
2026-05-06 01:01 58.62387 -156.31370 3442 ft 224 kts 205°
2026-05-06 01:02 58.61099 -156.32532 2855 ft 202 kts 211°
2026-05-06 01:02 58.59878 -156.33823 2766 ft 198 kts 213°
2026-05-06 01:02 58.58717 -156.35214 2762 ft 195 kts 217°
2026-05-06 01:02 58.57644 -156.36778 2763 ft 192 kts 230°
2026-05-06 01:03 58.57040 -156.38982 2767 ft 187 kts 259°
2026-05-06 01:03 58.57054 -156.41443 2774 ft 187 kts 284°
2026-05-06 01:03 58.57639 -156.43566 2295 ft 171 kts 310°
2026-05-06 01:03 58.58403 -156.45123 1762 ft 151 kts 310°
2026-05-06 01:04 58.59054 -156.46519 1385 ft 136 kts 311°
2026-05-06 01:04 58.59733 -156.47964 1475 ft 162 kts 311°
2026-05-06 01:04 58.60509 -156.49619 1331 ft 161 kts 311°
2026-05-06 01:04 58.61181 -156.51050 1255 ft 126 kts 311°
2026-05-06 01:05 58.61722 -156.52200 1250 ft 114 kts 311°
2026-05-06 01:05 58.62229 -156.53279 1268 ft 104 kts 311°
2026-05-06 01:05 58.62711 -156.54310 1126 ft 110 kts 310°
2026-05-06 01:05 58.63243 -156.55446 882 ft 110 kts 310°
2026-05-06 01:06 58.63740 -156.56509 861 ft 105 kts 310°
2026-05-06 01:06 58.64211 -156.57518 870 ft 100 kts 308°
2026-05-06 01:06 58.64669 -156.58505 874 ft 98 kts 309°
2026-05-06 01:06 58.65128 -156.59479 832 ft 98 kts 308°
2026-05-06 01:07 58.65564 -156.60428 658 ft 94 kts 308°
2026-05-06 01:07 58.65993 -156.61365 456 ft 93 kts 308°
2026-05-06 01:07 58.66419 -156.62264 264 ft 87 kts 308°
2026-05-06 01:07 58.66813 -156.63109 145 ft 83 kts 312°
2026-05-06 01:08 58.67151 -156.63829 117 ft 56 kts 312°
2026-05-06 01:08 58.67281 -156.64122 117 ft 19 kts 288°
2026-05-06 01:08 58.67237 -156.64353 114 ft 16 kts 243°
2026-05-06 01:08 58.67205 -156.64510 116 ft 12 kts 284°
2026-05-06 01:09 58.67241 -156.64601 116 ft 13 kts 309°
2026-05-06 01:09 58.67328 -156.64796 115 ft 13 kts 304°
2026-05-06 01:09 58.67358 -156.64933 116 ft 14 kts 274°
2026-05-06 01:09 58.67305 -156.65079 114 ft 7 kts 202°
2026-05-06 01:10 58.67302 -156.65082 116 ft 0 kts 202°